Regional Weather Roundup
Issued by NWS

Home | Current Version | Previous Version | Graphics & Text | Print | Product List | Glossary On
Versions: 1 2 3 4 5 6 7 8 9 10 11 12 13 14 15 16 17 18 19 20 21 22 23 24 25 26 27
000
ASUS45 KTFX 241610
RWRMT
MONTANA REGIONAL WEATHER ROUNDUP
NATIONAL WEATHER SERVICE GREAT FALLS MT
900 AM MST FRI NOV 24 2017

NOTE: "FAIR" INDICATES FEW OR NO CLOUDS BELOW 12000 FEET WITH NO
SIGNIFICANT WEATHER AND/OR OBSTRUCTIONS TO VISIBILITY.

MTZ001>007-043-241700-
WEST OF THE DIVIDE

CITY           SKY/WX    TMP DP  RH WIND       PRES   REMARKS
KALISPELL      FAIR      40  29  64 S10       29.94R
MISSOULA       MOCLDY    39  27  62 CALM      29.99S
BUTTE          FAIR      33  24  69 NW6       29.96R WCI  28
MULLAN PASS    CLOUDY    26  24  92 VRB5      29.93R FOG
ANACONDA         N/A     37  23  56 W8        29.96R WCI  31
DEER LODGE       N/A     34  25  69 W3        29.99R
EUREKA           N/A     39  28  65 MISG      29.92R
HAMILTON         N/A     36  27  69 E8        30.01R WCI  29
LIBBY            N/A     37  34  87 CALM      29.95R
PLAINS           N/A     44  29  56 S8        29.99R
$$

MTZ008-052>055-241700-
SOUTHWEST MONTANA

CITY           SKY/WX    TMP DP  RH WIND       PRES   REMARKS
BOZEMAN        FAIR      38  28  67 W5        29.95R
DILLON         FAIR      37  27  67 S9        29.95R WCI  30
W YELLOWSTONE  FAIR      37  27  65 CALM      29.98R
ENNIS          CLOUDY    37  30  75 SE8       29.99S WCI  31
TWIN BRIDGES     N/A     38  27  65 CALM      29.94S
$$

MTZ009-010-012-014-046-048-049-054-241700-
EAST SLOPES AND CENTRAL MONTANA

CITY           SKY/WX    TMP DP  RH WIND       PRES   REMARKS
CUT BANK       FAIR      37  25  61 SW14      29.79F WCI  28
GREAT FALLS    FAIR      39  23  52 SW15      29.86R WCI  31
MALMSTROM AFB  FAIR      40  24  52 SW20G29   29.86R
HELENA         FAIR      40  25  55 SW9       29.95R
BOWMANS CRNR   MOCLDY    35  24  63 S9        29.85S WCI  28
CHOTEAU          N/A     39  21  48 W15G22    29.84F WCI  31
FAIRFIELD      MOCLDY    40  21  47 SW18      29.84R
POWER          FAIR      34  24  65 SW10      29.84R WCI  26
RAYNESFORD     FAIR      40  20  43 SW23G33   29.86R
ULM            FAIR      41  24  49 SW16      29.88R
$$

MTZ011-013-016-021-045-047-050-051-241700-
NORTH CENTRAL MONTANA

CITY           SKY/WX    TMP DP  RH WIND       PRES   REMARKS
HAVRE          FAIR      37  30  75 SW8       29.81R WCI  31
LEWISTOWN      FAIR      37  22  54 W5        29.85R
N BAR RANCH    FAIR      39  16  38 NW16G24   29.84S WCI  30
CHINOOK          N/A     36  30  80 W5        29.80R
DENTON         FAIR      41  23  47 W18       29.81R
GEYSER         FAIR      38  22  52 W20       29.83S WCI  28
GRASS RANGE    FAIR      43  18  36 W20       29.81R
STANFORD       FAIR      40  17  38 W14       29.84R
WINIFRED       FAIR      36  25  64 W6        29.83R WCI  31
$$

MTZ017>020-022>027-061-062-241700-
NORTHEAST MONTANA

CITY           SKY/WX    TMP DP  RH WIND       PRES   REMARKS
GLASGOW        FAIR      37  35  92 SW10      29.76R WCI  30
GLENDIVE       PTSUNNY   43  36  76 NW21      29.73R
JORDAN           N/A     42  32  67 NW16      29.78R
SIDNEY         FAIR      43  37  79 NW20      29.68R
WOLF POINT     FAIR      41  36  82 W13       29.72R
MALTA          SUNNY     39  34  81 W13       29.77R WCI  32
PLENTYWOOD       N/A     39  37  93 W7        29.65R
POPLAR           N/A     39  34  81 W3        29.72R
SCOBEY           N/A     37  29  73 W8        29.67R WCI  31
$$

MTZ028>42-056>058-241700-
SOUTHCENTRAL AND SOUTHEAST MONTANA

CITY           SKY/WX    TMP DP  RH WIND       PRES   REMARKS
BAKER          FAIR      43  38  82 W20G25    29.74R
BILLINGS       FAIR      45  19  35 NW21      29.85S
LIVINGSTON     FAIR      44  29  55 W28       29.87R
MILES CITY     FAIR      45  36  70 W14       29.81R
BIG TIMBER     SUNNY     43  19  39 W18       29.90R
EKALAKA          N/A     41  36  82 W14       29.76R
FORSYTH          N/A     46  30  53 W10G16    29.82R
HARLOWTON      FAIR      39  22  51 W23       29.85R WCI  28
LAUREL           N/A     46  18  31 NW15      29.88F
ROUNDUP          N/A     42  21  43 SW12      29.77R
$$

REGIONAL REPORTS...DAKOTAS

CITY           SKY/WX    TMP DP  RH WIND       PRES   REMARKS
WILLISTON      FAIR      42  37  82 W14       29.65R
MINOT          FAIR      44  36  73 W17       29.52R
DICKINSON      FAIR      44  38  79 W16       29.64R
BEACH          CLOUDY    41  37  87 NW21      29.74R
CROSBY         FAIR      39  37  93 W21G30    29.60R WCI  29
TIOGA          FAIR      37  37 100 W15G23    29.62R WCI  28
WATFORD CITY   FAIR      41  39  93 W18G26    29.64R
BISMARCK       PTSUNNY   47  40  76 NW16      29.59R
GRAND FORKS    PTSUNNY   39  37  92 W15       29.38R WCI  31
FARGO          CLOUDY    47  42  83 NW14      29.37R
RAPID CITY     CLOUDY    50  36  58 NW23G36   29.73R
$$

REGIONAL REPORTS...WYOMING/IDAHO/WASHINGTON

CITY           SKY/WX    TMP DP  RH WIND       PRES   REMARKS
GILLETTE       FAIR      45  36  70 NW15G25   29.86R
SHERIDAN       FAIR      46  39  76 N12       29.88R
BUFFALO WY     FAIR      44  36  73 N23G31    29.86R
CODY           FAIR      41  35  79 CALM      29.90R
YELLOWSTONE LA   N/A     31  28  89 VRB6      29.99R WCI  25
IDAHO FALLS    CLOUDY    43  43 100 S9        29.99R
SALMON         MOCLDY    37  34  89 S3        29.99R
BOISE          FAIR      45  43  93 NW3       30.08R
SPOKANE        MOCLDY    36  35  96 S14       30.01R WCI  27
$$

REGIONAL REPORTS...ALBERTA

CITY           SKY/WX    TMP DP  RH WIND       PRES   REMARKS
EDMONTON       MOCLDY    36  28  75 W12G17    29.61S WCI  27
CALGARY        MOCLDY    39  19  45 W10G26    29.65S
LETHBRIDGE     MOCLDY    39  23  52 SW17      29.75R WCI  30
$$

REGIONAL REPORTS...SASKATCHEWAN

CITY           SKY/WX    TMP DP  RH WIND       PRES   REMARKS
SWIFT CURRENT  PTCLDY    34  30  86 SW16G22   29.65R WCI  23
REGINA         MOSUNNY   36  32  87 W23G29    29.56R WCI  24
SASKATOON      MOCLDY    30  25  80 SW15      29.57R WCI  19
$$




USA.gov is the U.S. government's official web portal to all federal, state and local government web resources and services.